Time+03,TemperatureF,Dew PointF,Humidity,Sea Level PressureIn,VisibilityMPH,Wind Direction,Wind SpeedMPH,Gust SpeedMPH,PrecipitationIn,Events,Conditions,WindDirDegrees,DateUTC
12:55 AM,53.8,46.4,76,30.25,6.2,WNW,12.7,-,N/A,,Clear,300,2013-01-16 21:55:00
1:55 AM,52.9,46.4,79,30.25,6.2,WNW,13.8,-,N/A,,Clear,300,2013-01-16 22:55:00
2:55 AM,52.2,46.2,80,30.25,6.2,WNW,12.7,-,N/A,,Clear,300,2013-01-16 23:55:00
3:55 AM,52.9,47.1,81,30.25,6.2,WNW,12.7,-,N/A,,Clear,300,2013-01-17 00:55:00
4:55 AM,51.4,47.1,85,30.26,6.2,WNW,12.7,-,N/A,,Clear,290,2013-01-17 01:55:00
5:55 AM,51.4,48.2,89,30.27,6.2,WNW,13.8,-,N/A,,Clear,290,2013-01-17 02:55:00
6:55 AM,52.0,48.6,88,30.29,6.2,WNW,15.0,-,N/A,,Clear,290,2013-01-17 03:55:00
7:55 AM,54.9,48.9,80,30.32,6.2,West,15.0,-,N/A,,Clear,280,2013-01-17 04:55:00
8:55 AM,58.6,48.4,69,30.33,6.2,WNW,17.3,-,N/A,,Clear,300,2013-01-17 05:55:00
9:55 AM,62.6,48.2,59,30.33,6.2,NW,15.0,-,N/A,,Clear,310,2013-01-17 06:55:00
10:55 AM,67.1,46.4,47,30.30,6.2,NW,15.0,-,N/A,,Clear,320,2013-01-17 07:55:00
11:55 AM,69.4,41.9,37,30.26,6.2,NW,11.5,-,N/A,,Clear,310,2013-01-17 08:55:00
12:55 PM,69.1,40.3,35,30.24,6.2,Variable,6.9,-,N/A,,Clear,0,2013-01-17 09:55:00
1:06 PM,69.8,39.2,33,30.24,6.2,North,9.2,-,N/A,,Light Drizzle,350,2013-01-17 10:06:00
1:10 PM,69.8,39.2,33,30.22,6.2,NE,5.8,-,N/A,,Clear,50,2013-01-17 10:10:00
1:15 PM,69.8,39.2,33,30.24,6.2,North,9.2,-,N/A,,Clear,350,2013-01-17 10:15:00
1:55 PM,69.4,39.2,33,30.24,6.2,NW,6.9,-,0.00,,Clear,320,2013-01-17 10:55:00
2:55 PM,69.8,37.4,31,30.23,6.2,North,6.9,-,N/A,,Clear,10,2013-01-17 11:55:00
3:18 PM,69.8,37.4,31,30.23,6.2,North,6.9,-,N/A,,Clear,10,2013-01-17 12:18:00
3:55 PM,69.6,37.2,31,30.23,6.2,WNW,5.8,-,N/A,,Clear,300,2013-01-17 12:55:00
4:55 PM,67.3,40.8,38,30.24,6.2,NW,9.2,-,N/A,,Clear,310,2013-01-17 13:55:00
5:55 PM,64.2,34.9,34,30.26,6.2,WNW,8.1,-,N/A,,Clear,290,2013-01-17 14:55:00
6:55 PM,61.7,39.9,45,30.27,6.2,WNW,8.1,-,N/A,,Clear,300,2013-01-17 15:55:00
7:55 PM,59.2,44.2,58,30.28,6.2,NW,9.2,-,N/A,,Clear,310,2013-01-17 16:55:00
8:55 PM,57.2,43.7,61,30.27,6.2,NW,5.8,-,N/A,,Clear,320,2013-01-17 17:55:00
9:55 PM,54.9,42.6,63,30.26,6.2,NW,5.8,-,N/A,,Clear,320,2013-01-17 18:55:00
10:55 PM,54.3,42.6,65,30.24,6.2,NNW,4.6,-,N/A,,Clear,330,2013-01-17 19:55:00
11:55 PM,53.6,42.1,65,30.23,6.2,NNW,5.8,-,N/A,,Clear,330,2013-01-17 20:55:00